Other Public Products
Issued by NWS Grand Forks, ND

Home | Current Version | Previous Version | Graphics & Text | Print | Product List | Glossary On
Versions: 1 2 3 4 5 6 7 8 9 10 11 12 13 14 15 16 17 18 19 20 21 22 23 24 25 26 27 28 29 30 31 32 33 34 35 36 37 38 39 40 41 42 43 44 45 46 47 48 49 50
000
FPUS83 KFGF 251431
OPUFGF
PRAIRIE TO PINES WEATHER ROUNDUP
NATIONAL WEATHER SERVICE EASTERN NORTH DAKOTA/GRAND FORKS ND
900 AM CDT SAT APR 25 2015

 **SATELLITE DATA USED TO AUGMENT SKY COVER AT AUTOMATED STATIONS**
 *****  WEATHER ACROSS EASTERN NORTH DAKOTA  *****

CITY           SKY/WX    TMP DP  RH WIND       PRES   REMARKS
GRAND FORKS    CLOUDY    46  34  61 E10       29.88R
GRAND FORKS AF CLOUDY    45  32  62 SE8       29.88R
GRAND CITY NWS   N/A     43 N/A N/A E9          N/A
BUXTON           N/A     44  37  74 CALM        N/A
DEVILS LAKE    CLOUDY    43  32  65 E15       29.85F
FARGO          CLOUDY    45  37  73 E9        29.84S
WAHPETON ARPT  CLOUDY    43  36  75 E13G18    29.84R
$$

 *****  WEATHER ACROSS CENTRAL AND WESTERN NORTH DAKOTA  *****

CITY           SKY/WX    TMP DP  RH WIND       PRES   REMARKS
JAMESTOWN      CLOUDY    42  38  85 E12       29.81S
BISMARCK       CLOUDY    44  41  89 E15       29.79R
MINOT          CLOUDY    42  40  92 E13       29.80F FOG
MINOT AFB      CLOUDY    43  43 100 SE14      29.80S
GARRISON         N/A     43  41  93 SE14      29.78R
WILLISTON      CLOUDY    47  41  80 SE8       29.73S
DICKINSON      FOG       42  41  96 E15       29.71S VSB 1/4
HETTINGER      FOG       42  41  96 SE12      29.73S VSB 1/2
$$

 *****  OTHER OBSERVATIONS NORTHEAST NORTH DAKOTA  *****

CITY           SKY/WX    TMP DP  RH WIND       PRES   REMARKS
WALHALLA       CLOUDY    37  37 100 CALM      29.92F
LANGDON        CLOUDY    45  34  65 E13       29.89S
CAVALIER       CLOUDY    41  32  70 E5        29.92S
GRAFTON        CLOUDY    45  34  65 E9        29.91S
CANDO          CLOUDY    45  34  65 SE14      29.86S
FORT TOTTEN    NOT AVBL
ROLLA          CLOUDY    41  37  87 SE7       29.88R
RUGBY          NOT AVBL
 ***** THE ABOVE OBSERVATIONS ARE NON NWS ARE NOT QUALITY
        CONTROLLED AND MAY MIS-REPORT RAIN FOR SNOW...
$$

 *****  OTHER OBSERVATIONS SOUTHEAST NORTH DAKOTA *****

CITY           SKY/WX    TMP DP  RH WIND       PRES   REMARKS
COOPERSTOWN    NOT AVBL
VALLEY CITY    CLOUDY    41  41 100 E13       29.83S FOG
OAKES            N/A     41  41 100 NE9       29.81R FOG
GWINNER        CLOUDY    43  43 100 E13       29.83R VSB 1
SHEYENNE NWR     N/A     43  38  84 E12       29.95
BUFFALO        NOT AVBL
WYNDMERE       NOT AVBL
 ***** THE ABOVE OBSERVATIONS ARE NON NWS ARE NOT QUALITY
       CONTROLLED AND MAY MIS-REPORT RAIN FOR SNOW...
$$

  *****  WEATHER ACROSS NORTHERN MINNESOTA  *****

CITY           SKY/WX    TMP DP  RH WIND       PRES   REMARKS
FLAG ISLAND    CLOUDY    43  23  45 SE7       29.97S
WARROAD        CLOUDY    39  28  65 E7        29.96S
ROSEAU         CLOUDY    45  25  45 SE9       29.94S
HALLOCK        CLOUDY    46  30  53 E10       29.92R
THF RVR FALLS  PTSUNNY   45  28  53 E15       29.90S
HALSTAD          N/A     46  34  63 E12         N/A
FOSSTON        CLOUDY    43  30  61 E7        29.89R
BAUDETTE         N/A     42  22  44 E13       29.96R
WASKISH        PTSUNNY   45  25  45 CALM      29.94S
CROOKSTON      CLOUDY    46  32  57 SE10      29.90R
$$
  *****  WEATHER ACROSS CENTRAL AND WEST MINNESOTA  *****

CITY           SKY/WX    TMP DP  RH WIND       PRES   REMARKS
BEMIDJI        MOSUNNY   42  28  55 E10G16    29.90S
PARK RAPIDS    CLOUDY    44  31  60 E13       29.87R
WADENA         PTSUNNY   41  34  75 E12       29.85S
DETROIT LAKES  PTSUNNY   43  34  70 SE10G17   29.86R
MOORHEAD       CLOUDY    45  36  70 E8        29.86S
FERGUS FALLS   CLOUDY    43  34  70 SE10      29.85S
ELBOW LAKE     CLOUDY    41  38  87 E10       29.84R
MORRIS MN      MOSUNNY   43  41  93 E13       29.82R FOG
STAPLES        CLOUDY    43  32  65 E9        29.87R
WHEATON        PTSUNNY   41  39  93 E10       29.84S FOG
$$
  *****  WEATHER ELSEWHERE ACROSS MINNESOTA  *****

CITY           SKY/WX    TMP DP  RH WIND       PRES   REMARKS
DULUTH         CLOUDY    36  23  59 E15       29.95R
INTRNTL FALLS  CLOUDY    40  17  39 E12       29.97S
ELY            PTSUNNY   39   7  26 E10       29.97F
CLOQUET        CLOUDY    36  27  69 E14G26    29.95R
BRAINERD       CLOUDY    40  32  73 E8G16     29.89R
HIBBING        CLOUDY    39  21  48 E12       29.94S
ALEXANDRIA     CLOUDY    40  36  86 E12       29.84R
SAINT CLOUD    CLOUDY    43  36  76 E9G20     29.86R
MINNEAPOLIS    CLOUDY    44  37  76 E9        29.85R
$$

  *****  WEATHER ACROSS SOUTH DAKOTA  *****

CITY           SKY/WX    TMP DP  RH WIND       PRES   REMARKS
SIOUX FALLS    CLOUDY    46  41  82 E15G25    29.73R
BROOKINGS      CLOUDY    45  41  87 E17       29.76R
WATERTOWN      CLOUDY    42  40  92 E12G22    29.76R FOG
HURON          CLOUDY    47  44  90 E13       29.74R FOG
SISSETON         N/A     43  43 100 SE13      29.80R
ABERDEEN       CLOUDY    45  42  89 E10       29.78R FOG
MITCHELL       LGT RAIN  48  46  93 E8        29.72R FOG
PIERRE         FOG       45  44  97 NE13      29.71R VSB 1
MOBRIDGE       CLOUDY    45  43  93 E10       29.73R FOG
RAPID CITY     FOG       43  42  97 W7        29.70S VSB 1/4
$$

  *****  SOME WEATHER IN NEARBY STATES *****

CITY           SKY/WX    TMP DP  RH WIND       PRES   REMARKS
GLASGOW MT     PTSUNNY   48  40  73 NW23G31   29.64R
GREAT FALLS MT CLOUDY    38  34  85 S6        29.77S
CHEYENNE WY    SUNNY     46  32  58 W6        29.75S
SCOTTSBLUFF NE SUNNY     49  32  52 NW6       29.71R
OMAHA NE       LGT RAIN  48  45  89 N10       29.59R FOG
DES MOINES IA  LGT RAIN  45  42  89 E22G32    29.58F FOG
DAVENPORT IA   CLOUDY    44  41  89 E23       29.67F FOG
CHICAGO IL     LGT RAIN  43  39  86 E16       29.77F FOG
EAU CLAIRE WI  PTSUNNY   45  26  47 E12       29.87S
LA CROSSE WI   CLOUDY    43  36  76 E9        29.83S
$$

  *****  SOME NATIONAL WEATHER *****

CITY           SKY/WX    TMP DP  RH WIND       PRES   REMARKS
LA GUARDIA NY  PTSUNNY   46  24  42 NW15      29.87F
RALEIGH NC     CLOUDY    55  45  68 CALM      29.93S
ATLANTA GA     CLOUDY    63  57  82 S8        29.81F
NEW ORLEANS LA MOSUNNY   79  72  79 S12       29.80F
OKLAHOMA CITY  SUNNY     64  49  57 W6        29.65R
ALBUQUERQUE NM MOSUNNY   48  36  63 CALM      29.98R
SALT LAKE CITY PTSUNNY   44  39  82 SW3       29.81S
LOS ANGELES CA CLOUDY    57  52  82 SW5       29.99R
BOISE ID       CLOUDY    43  34  70 CALM      29.80S
SEATTLE WA     MOCLDY    43  39  86 SE5       29.94R
$$

*** WEATHER ACROSS MANITOBA...SASKATCHEWAN AND ONTARIO ***
                ***ONTARIO***

CITY           SKY/WX    TMP DP  RH WIND       PRES   REMARKS
GERALDTON      MOSUNNY   34  19  55 VRB2      30.11S
THUNDER BAY    MOSUNNY   39  19  45 E9        30.08S
SIOUX LOOKOUT  PTSUNNY   37  19  48 SE5       30.05S
TORONTO        MOSUNNY   43  25  49 N5        29.98S
BIG TROUT LK   SUNNY     27  16  63 E5        30.18S WCI  21
PICKLE LAKE    MOSUNNY   34  18  51 E5        30.11S
DRYDEN         CLOUDY    37  21  52 E6        30.02S
KENORA         PTSUNNY   43  19  39 SE12      30.00
$$
                *** MANITOBA***

CITY           SKY/WX    TMP DP  RH WIND       PRES   REMARKS
BRANDON        MOSUNNY   39  34  81 NE10      29.91S
DAUPHIN        MOSUNNY   41  34  75 SE9       29.93S
ISLAND LAKE    MOSUNNY   32  16  51 SE8       30.09R WCI  25
PILOT MOUND      N/A     43  34  70 SE13        N/A
THE PAS        FRZ DRZL  27  25  93 N7        30.03R WCI  19
THOMPSON       LGT SNOW  27  23  86 NE6       30.07R WCI  20
WINNIPEG       PTSUNNY   43  28  56 SE9       29.96R
LYNN LAKE      SUNNY     25  14  63 N5        30.10S WCI  19
CHURCHILL      PTSUNNY   23  14  68 S8        30.25S WCI  14
GILLAM         PTSUNNY   27  18  69 E8        30.15F WCI  18
$$
                ***SASKATCHEWAN***

CITY           SKY/WX    TMP DP  RH WIND       PRES   REMARKS
ESTEVAN        CLOUDY    43  39  87 E15       29.78S FOG
KINDERSLEY     CLOUDY    28  28 100 NE18      29.80R WCI  16
LLOYDMINSTER   CLOUDY    32  21  64 E16G24    29.90R WCI  21
PRINCE ALBERT  CLOUDY    28  21  74 NE17      29.97S WCI  16
REGINA         LGT RAIN  43  43 100 SE12G18   29.76R FOG



USA.gov is the U.S. government's official web portal to all federal, state and local government web resources and services.